Terug naar catalogus

METEOR 1-5 DEB

ActiefPO
NORAD 58397·DEBRIS·🇷🇺 Russia

Gelanceerd Jun 23, 1970 vanaf Plesetsk Cosmodrome

Loading…

Volgende Passages (komende 24 uur)

TLE

VersSource: Space-Track

Epoch: Sep 14, 2026, 03:45 UTC

1 58397U 70047D   26257.15674797  .00000402  00000-0  19423-3 0  9996
2 58397  81.2176 148.4383 0029690 156.2287 204.0267 14.16621957149048

Volg METEOR 1-5 DEB in realtime met AllMySat

Download on the App Store